User: anonymous
Location: Wawayanda State Park
(41.1833°N, 74.4333°W)
Time: 00:33:57
(UTC-04:00)
Language:

RESURS DK-1 - Orbit

View from above orbital plane
View from above orbital plane
View from above satellite
View from above satellite

Ground track
Ground track

The orbit data is extracted from the following two-line orbital elements,

1 29228U 06021A   14110.78554731  .00001155  00000-0  98726-4 0  7737
2 29228 069.9363 149.8515 0006188 294.5168 065.5349 15.00621273434967
Epoch (UTC): 20 April 2014 18:51:11
Eccentricity: 0.0006188
inclination: 69.9363°
perigee height: 560 km
apogee height: 569 km
right ascension of ascending node: 149.8515°
argument of perigee: 294.5168°
revolutions per day: 15.00621273
mean anomaly at epoch: 65.5349°
orbit number at epoch: 43496

The dashed part of the orbit path shows where the satellite is in the earth's shadow,  

DLR